Погода в Банхе

Египет     30°27′20″N   31°10′40″E
темп.,
°C
ветер,
м/с
пор.,
м/с
влажн.,
%
обл.,
%
осадки,
мм/ч
давл.,
гПа
погр.,
м
10 августа, ср
ср1023:00+25ссв24730 0.0 1009115
02:00+23с22820 0.0 100852
05:00+22с22890 0.0 100835
08:00+28ссз23600 0.0 1008671
11:00+35ссз34290 0.0 10072093
14:00+39сз44200 0.0 10052830
17:00+37ссз76230 0.0 10041870
20:00+28ссв59560 0.0 1007384
11 августа, чт
чт1123:00+25св23750 0.0 100754
02:00+23ссз11820 0.0 100716
05:00+22ссз22880 0.0 100719
08:00+28сз11560 0.0 1008635
11:00+35з22260 0.0 10071810
14:00+39зсз43160 0.0 10052633
17:00+37с76230 0.0 10051679
20:00+28с59490 0.0 1007481
12 августа, пт
пт1223:00+25св36680 0.0 1008170
02:00+23с22770 0.0 100827
05:00+22с22830 0.0 100823
08:00+28ссз22520 0.0 1009597
11:00+35зсз33220 0.0 10081772
14:00+39сз44130 0.0 10062633
17:00+36ссз87260 0.0 10061212
20:00+27с59640 0.0 1009391
13 августа, сб
сб1323:00+24ссв24830 0.0 1009120
02:00+23ссз22880 0.0 100837
05:00+22сз22900 0.0 100917
08:00+28ссз34600 0.0 1009740
11:00+36ссз45270 0.0 10072001
14:00+39ссз65180 0.0 10052809
17:00+36ссз97230 0.0 10061696
20:00+27ссз612550 0.0 1008466
14 августа, вс
вс1423:00+23с22790 0.0 100926
02:00+22сз22810 0.0 100815
05:00+21сз11850 0.0 100811
08:00+28ссз35550 0.0 1008751
11:00+36ссз45240 0.0 10071966
14:00+39с64170 0.0 10052678
17:00+36ссз87210 0.0 10051246
20:00+27с510480 0.0 1008323